[[{"header":{"parameterUnit":"m.s-1","parameterCategory":1,"la1":30.2991,"la2":30.254,"lo1":-89.0895,"lo2":-89.0444,"dy":0.0017,"dx":0.0017,"nx":28,"ny":28,"refTime":"2024-10-08T09:00:00:Z","depth":0,"parameterNumber":2,"parameterNumberName":"U-component_of_WINDS"},"data":[0,0,0,0,0,0,0,0,0,0,0,0,0,0,0,0,0,0,0,0,0,0,0,0,0,0,0,0,0,0,0,0,0,0,0,0,0,0,0,0,0,0,0,0,0,0,0,0,0,0,0,0,0,0,0,0,0,0,-1.0355,-1.0356,0,-1.0403,-1.0403,-1.0404,-1.0362,-1.036,-1.0359,-1.0357,-1.0407,-1.041,-1.0412,0,0,0,0,0,0,0,0,0,0,0,0,0,-1.023,-1.0232,-1.0355,-1.0356,-1.0357,-1.0402,-1.0403,-1.0404,-1.0362,-1.036,-1.0358,-1.0356,-1.0406,-1.0409,-1.0413,0,0,0,0,0,0,0,0,0,0,0,0,0,-1.0281,-1.0233,-1.0355,-1.0341,-1.0341,-1.0402,-1.0403,-1.0404,-1.0363,-1.036,-1.0358,-1.0355,-1.0405,-1.0409,-1.0413,-1.0492,0,0,-1.0427,-1.0428,0,0,0,0,0,0,0,0,-1.0279,-1.0286,-1.0343,-1.0342,-1.0342,-1.0374,-1.0377,-1.0433,-1.0363,-1.0354,-1.0357,-1.0354,-1.0398,-1.0403,-1.0417,-1.0494,-1.0496,-1.0427,-1.043,-1.0432,-1.0433,0,0,0,0,0,0,0,-1.0275,-1.0284,-1.0374,-1.0344,-1.0343,-1.0333,-1.0337,-1.0388,-1.039,-1.0355,-1.0352,-1.0358,-1.0397,-1.0413,-1.0418,-1.0497,-1.0427,-1.0431,-1.0433,-1.0435,-1.064,-1.0643,0,0,0,0,0,0,-1.0273,-1.0281,-1.0373,-1.0375,-1.0303,-1.0337,-1.0342,-1.0366,-1.0389,-1.039,-1.036,-1.0356,-1.0407,-1.0413,-1.042,-1.0514,-1.0431,-1.0436,-1.0438,-1.0637,-1.0641,-1.0644,0,0,0,0,0,0,-1.027,-1.0281,-1.0371,-1.0328,-1.0338,-1.0342,-1.0369,-1.0368,-1.0384,-1.0393,-1.0394,-1.0376,-1.0405,-1.0414,-1.0474,-1.0515,-1.0438,-1.0442,-1.0634,-1.0638,-1.0642,-1.0702,0,0,0,0,0,0,-1.0267,-1.0281,-1.0311,-1.0328,-1.0341,-1.0424,-1.0372,-1.0371,-1.0392,-1.0387,-1.0408,-1.0409,-1.0404,-1.0468,-1.0478,-1.0519,-1.0445,-1.063,-1.0636,-1.0641,-1.0696,-1.0708,-1.0717,0,0,0,0,0,-1.0262,-1.0326,-1.0312,-1.0324,-1.0378,-1.0427,-1.0434,-1.0425,-1.0395,-1.0425,-1.0431,-1.0409,-1.0508,-1.0474,-1.0486,-1.0529,-1.0628,-1.0634,-1.064,-1.0692,-1.0705,-1.0717,0,0,0,0,0,0,-1.0314,-1.0328,-1.0313,-1.0384,-1.0404,-1.042,-1.0458,-1.044,-1.047,-1.0464,-1.0453,-1.0458,-1.0522,-1.0531,-1.0493,-1.0606,-1.0563,-1.0572,-1.0598,-1.0611,-1.0621,-1.0619,-1.0449,0,0,0,0,0,-1.0333,-1.0371,-1.0381,-1.0443,-1.0454,-1.0454,-1.0475,-1.0466,-1.0487,-1.0496,-1.0506,-1.0527,-1.0563,-1.0587,-1.0621,-1.0696,-1.0701,-1.0732,-1.0742,-1.0751,-1.0759,-1.08,-1.0814,-1.0664,-1.0664,-1.0664,0,0,-1.0374,-1.0386,-1.0411,-1.0454,-1.0468,-1.0508,-1.0462,-1.0506,-1.0536,-1.0503,-1.0561,-1.0569,-1.0591,-1.066,-1.0691,-1.067,-1.0801,-1.0759,-1.0765,-1.0769,-1.0808,-1.0822,-1.0835,-1.0669,-1.0668,-1.0667,0,0,-1.0469,-1.0482,-1.0535,-1.055,-1.0572,-1.0572,-1.0584,-1.0602,-1.0606,-1.0663,-1.0639,-1.0674,-1.0736,-1.0754,-1.0771,-1.0871,-1.0852,-1.0882,-1.0937,-1.0977,-1.0989,-1.1,-1.1036,-1.1049,-1.089,-1.089,-1.089,0,-1.0517,-1.0576,-1.0564,-1.061,-1.063,-1.06,-1.0654,-1.067,-1.0702,-1.0717,-1.0692,-1.0769,-1.0782,-1.0854,-1.0879,-1.0893,-1.0908,-1.088,-1.0988,-1.0999,-1.1008,-1.1043,-1.1057,-1.0893,-1.0893,-1.0893,-1.0892,0,-1.0635,-1.0676,-1.0716,-1.0748,-1.0771,-1.0821,-1.0817,-1.0842,-1.0831,-1.0833,-1.0892,-1.0906,-1.0942,-1.0958,-1.0948,-1.1029,-1.1015,-1.099,-1.0947,-1.1026,-1.1059,-1.1072,-1.0899,-1.0897,-1.0896,-1.0895,0,0,-1.0766,-1.0789,-1.0804,-1.0818,-1.084,-1.0872,-1.0919,-1.0954,-1.0976,-1.0999,-1.104,-1.1092,-1.1068,-1.1087,-1.1078,-1.1113,-1.1193,-1.1083,-1.1084,-1.1104,-1.1283,-1.1304,-1.132,-1.1179,-1.1181,-1.1183,-1.1282,0,-1.0863,-1.0947,-1.0936,-1.1016,-1.1055,-1.1026,-1.1068,-1.1086,-1.1088,-1.1121,-1.1124,-1.1162,-1.1126,-1.1138,-1.1171,-1.1176,-1.1229,-1.1168,-1.1217,-1.1219,-1.1215,-1.1337,-1.1359,-1.1451,-1.1294,-1.1297,-1.1298,0,-1.0988,-1.1015,-1.1099,-1.1114,-1.113,-1.1168,-1.1198,-1.123,-1.1249,-1.1248,-1.1269,-1.1254,-1.1302,-1.1256,-1.1323,-1.1282,-1.1301,-1.1306,-1.1309,-1.1315,-1.1265,-1.1348,-1.1481,-1.1495,-1.1318,-1.1316,-1.1315,0,-1.1077,-1.1134,-1.1192,-1.1204,-1.1223,-1.125,-1.126,-1.1276,-1.1298,-1.1324,-1.1338,-1.1369,-1.1387,-1.1412,-1.1406,-1.1373,-1.1474,-1.1428,-1.1476,-1.1476,-1.15,-1.1499,-1.164,-1.1509,-1.1509,-1.1509,-1.1508,0,-1.1188,-1.1241,-1.1232,-1.1268,-1.1326,-1.1313,-1.137,-1.1376,-1.1391,-1.1427,-1.1404,-1.1438,-1.1427,-1.1461,-1.1456,-1.1512,-1.152,-1.1521,-1.152,-1.1524,-1.1525,-1.1538,-1.1533,-1.1512,-1.1512,-1.1511,-1.151,0,-1.1299,-1.1294,-1.1356,-1.1368,-1.1372,-1.1415,-1.1425,-1.1459,-1.1458,-1.1505,-1.1515,-1.1515,-1.1553,-1.1548,-1.1592,-1.1588,-1.1658,-1.1648,-1.1652,-1.1651,-1.1699,-1.1695,-1.1856,-1.1876,-1.173,-1.1732,-1.1733,0,-1.1371,-1.1411,-1.1427,-1.1449,-1.146,-1.1497,-1.1518,-1.1506,-1.1529,-1.1553,-1.1584,-1.162,-1.1649,-1.1712,-1.1716,-1.1748,-1.174,-1.1794,-1.1745,-1.1748,-1.1743,-1.1741,-1.1745,-1.1804,-1.1806,-1.1807,-1.1808,0,-1.15,-1.1495,-1.1527,-1.1557,-1.1583,-1.1606,-1.1628,-1.1647,-1.1637,-1.1664,-1.1703,-1.1725,-1.1768,-1.1805,-1.1836,-1.1845,-1.1826,-1.1823,-1.1836,-1.1843,-1.1844,-1.1845,-1.168,-1.182,-1.1819,-1.1818,-1.1817,-1.1817,-1.1594,-1.1628,-1.1645,-1.1681,-1.1695,-1.1715,-1.1747,-1.175,-1.1782,-1.1817,-1.1807,-1.1851,-1.1869,-1.1908,-1.192,-1.1954,-1.1935,-1.1953,-1.1959,-1.1964,-1.197,-1.1837,-1.196,-1.1959,-1.1959,-1.1959,-1.1958,0,-1.1723,-1.1732,-1.1765,-1.1795,-1.1823,-1.18,-1.1822,-1.1847,-1.1886,-1.1904,-1.1932,-1.1976,-1.2011,-1.2017,-1.205,-1.2076,-1.2068,-1.2086,-1.2085,-1.2087,-1.1985,-1.1971,-1.2092,-1.2092,-1.2092,-1.2092,-1.2092,-1.2092,-1.1794,-1.185,-1.1848,-1.1911,-1.1919,-1.1962,-1.1977,-1.1995,-1.2009,-1.206,-1.2088,-1.2091,-1.2104,-1.2138,-1.2169,-1.2169,-1.2184,-1.2205,-1.2202,-1.2108,-1.2094,-1.2082,-1.2069,-1.2208,-1.2208,-1.2302,-1.2303,-1.2303]},{"header":{"parameterUnit":"m.s-1","parameterCategory":1,"la1":30.2991,"la2":30.254,"lo1":-89.0895,"lo2":-89.0444,"dy":0.0017,"dx":0.0017,"nx":28,"ny":28,"refTime":"2024-10-08T09:00:00:Z","depth":0,"parameterNumber":3,"parameterNumberName":"V-component_of_WINDS"},"data":[0,0,0,0,0,0,0,0,0,0,0,0,0,0,0,0,0,0,0,0,0,0,0,0,0,0,0,0,0,0,0,0,0,0,0,0,0,0,0,0,0,0,0,0,0,0,0,0,0,0,0,0,0,0,0,0,0,0,-5.9115,-5.9116,0,-5.9197,-5.9198,-5.9199,-5.9112,-5.9109,-5.9105,-5.9102,-5.9181,-5.9186,-5.9191,0,0,0,0,0,0,0,0,0,0,0,0,0,-5.8878,-5.8883,-5.9115,-5.9116,-5.9117,-5.9197,-5.9198,-5.9199,-5.9113,-5.9109,-5.9105,-5.9101,-5.9179,-5.9186,-5.9192,0,0,0,0,0,0,0,0,0,0,0,0,0,-5.8973,-5.8885,-5.9115,-5.9084,-5.9082,-5.9197,-5.9198,-5.92,-5.9114,-5.9108,-5.9103,-5.9099,-5.9177,-5.9185,-5.9193,-5.9341,0,0,-5.9217,-5.922,0,0,0,0,0,0,0,0,-5.8967,-5.8981,-5.9087,-5.9086,-5.9084,-5.9139,-5.9143,-5.9247,-5.9115,-5.9101,-5.9102,-5.9096,-5.9171,-5.9179,-5.9205,-5.9345,-5.9348,-5.9217,-5.9222,-5.9225,-5.9228,0,0,0,0,0,0,0,-5.8961,-5.8977,-5.9148,-5.9089,-5.9087,-5.9064,-5.9072,-5.9163,-5.9163,-5.9102,-5.9096,-5.9107,-5.9169,-5.9198,-5.9206,-5.9349,-5.9217,-5.9224,-5.9229,-5.9232,-5.9614,-5.9619,0,0,0,0,0,0,-5.8959,-5.8973,-5.9145,-5.915,-5.9012,-5.9072,-5.9081,-5.9127,-5.9162,-5.9163,-5.9111,-5.9103,-5.9187,-5.9197,-5.9209,-5.9385,-5.9225,-5.9233,-5.9237,-5.9608,-5.9615,-5.9621,0,0,0,0,0,0,-5.8954,-5.8975,-5.9142,-5.906,-5.9079,-5.9082,-5.9134,-5.9131,-5.916,-5.9169,-5.9168,-5.9141,-5.9183,-5.9198,-5.9309,-5.9386,-5.9236,-5.9243,-5.9602,-5.961,-5.9618,-5.9738,0,0,0,0,0,0,-5.8947,-5.8974,-5.9032,-5.9062,-5.9084,-5.9243,-5.9138,-5.9136,-5.9174,-5.9164,-5.9197,-5.9197,-5.9181,-5.9298,-5.9317,-5.9394,-5.9249,-5.9595,-5.9606,-5.9615,-5.9727,-5.9749,-5.9768,0,0,0,0,0,-5.8939,-5.9061,-5.9035,-5.9056,-5.9157,-5.9247,-5.926,-5.924,-5.9181,-5.9238,-5.9244,-5.9196,-5.9375,-5.931,-5.9331,-5.9412,-5.959,-5.9603,-5.9615,-5.9718,-5.9745,-5.9768,0,0,0,0,0,0,-5.9038,-5.9064,-5.9036,-5.9171,-5.9208,-5.9232,-5.9304,-5.9269,-5.9322,-5.931,-5.9281,-5.9289,-5.9407,-5.942,-5.9348,-5.9557,-5.9472,-5.9489,-5.9544,-5.957,-5.959,-5.9584,-5.9256,0,0,0,0,0,-5.9076,-5.9149,-5.9167,-5.9285,-5.9305,-5.9302,-5.9341,-5.9322,-5.9358,-5.9373,-5.9386,-5.9422,-5.9485,-5.9528,-5.9587,-5.9728,-5.9734,-5.9794,-5.9815,-5.9831,-5.9846,-5.9921,-5.9948,-5.9661,-5.9661,-5.9661,0,0,-5.9154,-5.9178,-5.9225,-5.9306,-5.9332,-5.9407,-5.9315,-5.9398,-5.9453,-5.9384,-5.9491,-5.9502,-5.954,-5.9667,-5.9723,-5.9681,-5.9927,-5.9847,-5.9861,-5.9866,-5.9937,-5.9964,-5.9988,-5.967,-5.9668,-5.9667,0,0,-5.9335,-5.9361,-5.9462,-5.949,-5.9532,-5.9529,-5.9553,-5.9583,-5.9589,-5.9695,-5.9645,-5.9709,-5.982,-5.9848,-5.9878,-6.007,-6.0027,-6.0089,-6.0197,-6.027,-6.0293,-6.0312,-6.0381,-6.0405,-6.0104,-6.0105,-6.0105,0,-5.9427,-5.954,-5.9518,-5.9605,-5.9641,-5.9584,-5.9685,-5.9713,-5.9771,-5.9797,-5.9749,-5.9887,-5.9908,-6.0041,-6.0088,-6.0113,-6.0139,-6.0086,-6.0291,-6.0311,-6.0329,-6.0394,-6.042,-6.0112,-6.0111,-6.011,-6.011,0,-5.965,-5.9729,-5.9805,-5.9865,-5.991,-6.0003,-5.9994,-6.0041,-6.0018,-6.002,-6.0128,-6.0152,-6.0215,-6.0245,-6.0223,-6.0374,-6.0347,-6.0296,-6.0211,-6.0364,-6.0425,-6.0449,-6.0122,-6.012,-6.0117,-6.0116,0,0,-5.9896,-5.9943,-5.9971,-5.9997,-6.0039,-6.0098,-6.0188,-6.0252,-6.0293,-6.0334,-6.0409,-6.0504,-6.0457,-6.049,-6.0471,-6.0535,-6.0685,-6.0476,-6.0477,-6.0514,-6.0853,-6.0891,-6.092,-6.0658,-6.0662,-6.0666,-6.085,0,-6.0078,-6.0238,-6.022,-6.0371,-6.0443,-6.0389,-6.0467,-6.05,-6.0504,-6.0564,-6.0566,-6.0635,-6.0568,-6.0588,-6.0649,-6.0654,-6.0753,-6.0641,-6.0725,-6.0728,-6.0718,-6.0952,-6.0992,-6.1165,-6.0873,-6.0877,-6.088,0,-6.0312,-6.0365,-6.0523,-6.0554,-6.0583,-6.0654,-6.0711,-6.0769,-6.0805,-6.0802,-6.084,-6.0809,-6.0898,-6.0811,-6.0932,-6.0856,-6.0889,-6.0897,-6.0903,-6.091,-6.0814,-6.0965,-6.1219,-6.1245,-6.0917,-6.0914,-6.0911,0,-6.0476,-6.0585,-6.0695,-6.0718,-6.0757,-6.0808,-6.0826,-6.0856,-6.0895,-6.0944,-6.0969,-6.1026,-6.1058,-6.1102,-6.1087,-6.1026,-6.1211,-6.1123,-6.1211,-6.1212,-6.1253,-6.125,-6.1516,-6.1274,-6.1274,-6.1273,-6.1273,0,-6.0681,-6.078,-6.0769,-6.0836,-6.0945,-6.0922,-6.103,-6.1041,-6.1069,-6.1136,-6.1092,-6.1155,-6.1131,-6.1193,-6.1181,-6.1283,-6.1297,-6.1297,-6.1293,-6.1301,-6.1302,-6.1323,-6.131,-6.128,-6.1279,-6.1277,-6.1276,0,-6.0883,-6.0879,-6.0994,-6.1021,-6.103,-6.1109,-6.1131,-6.1193,-6.1193,-6.1278,-6.1297,-6.1297,-6.1367,-6.1356,-6.1433,-6.1425,-6.1552,-6.1533,-6.1541,-6.1537,-6.1625,-6.1617,-6.1913,-6.1951,-6.1685,-6.1688,-6.169,0,-6.1014,-6.1089,-6.1125,-6.1168,-6.119,-6.1259,-6.1299,-6.1279,-6.1322,-6.1368,-6.1425,-6.1491,-6.1543,-6.1657,-6.1663,-6.1721,-6.1703,-6.1803,-6.1712,-6.1718,-6.1704,-6.17,-6.1707,-6.1821,-6.1824,-6.1827,-6.1829,0,-6.1248,-6.1242,-6.1303,-6.1363,-6.1413,-6.1458,-6.15,-6.1536,-6.152,-6.1571,-6.1643,-6.1684,-6.1763,-6.1829,-6.1884,-6.19,-6.1862,-6.1857,-6.1881,-6.189,-6.1892,-6.1892,-6.159,-6.1851,-6.1848,-6.1847,-6.1846,-6.1845,-6.1418,-6.1482,-6.1518,-6.1586,-6.1616,-6.1655,-6.1715,-6.1723,-6.1784,-6.1848,-6.1832,-6.1914,-6.1946,-6.2016,-6.2038,-6.21,-6.2063,-6.2097,-6.2105,-6.2114,-6.2125,-6.1882,-6.211,-6.2109,-6.2108,-6.2108,-6.2107,0,-6.1649,-6.167,-6.1733,-6.1793,-6.1847,-6.1808,-6.1851,-6.1898,-6.1971,-6.2005,-6.2058,-6.214,-6.2204,-6.2215,-6.2275,-6.2322,-6.2306,-6.2339,-6.2335,-6.2339,-6.2154,-6.2128,-6.2351,-6.2351,-6.2351,-6.2351,-6.2351,-6.2351,-6.1776,-6.1883,-6.1882,-6.2002,-6.2021,-6.2102,-6.213,-6.2165,-6.2193,-6.2287,-6.2341,-6.2348,-6.2372,-6.2434,-6.249,-6.2491,-6.2515,-6.2555,-6.255,-6.2377,-6.2352,-6.2329,-6.2304,-6.256,-6.2561,-6.2729,-6.2731,-6.2732]}]]